User: anonymous   Login
Location: Caltech
(34.1382°N, 118.1253°W)
Time: 07:00:27
(UTC-08:00)
Language:

Aureole 3 Rocket - Orbit

View from above orbital plane
View from above orbital plane
View from above satellite
View from above satellite

Ground track
Ground track

The orbit data is extracted from the following two-line orbital elements,

1 12849U 81094B   15060.53689093  .00001435  00000-0  13127-3 0  9991
2 12849 082.4897 089.8321 0909365 148.2840 217.6563 13.48834816628804
Epoch (UTC): 01 March 2015 12:53:07
Eccentricity: 0.0909365
inclination: 82.4897°
perigee height: 398 km
apogee height: 1754 km
right ascension of ascending node: 89.8321°
argument of perigee: 148.2840°
revolutions per day: 13.48834816
mean anomaly at epoch: 217.6563°
orbit number at epoch: 62880

The dashed part of the orbit path shows where the satellite is in the earth's shadow,  

DLR